Total_Precipitation_Accumulation
0.53 0.51 0.50 0.51 0.49 0.63 0.87 1.06 1.06 1.13 1.23 1.17 1.02 0.95 0.92 0.89 0.86 0.96 0.84 0.90 0.87 0.90 1.16 1.20 1.02 0.88 0.80 0.70 0.62 0.56 0.55 0.56 0.52 0.40 0.34 0.38 0.46 0.52 0.49 0.42 0.39 0.37 0.31
0.81 0.79 0.71 0.73 0.64 0.71 0.85 1.06 1.18 1.44 1.40 1.35 1.06 0.99 1.01 1.05 0.99 1.06 1.07 1.19 1.08 0.97 1.08 1.09 1.05 0.97 0.87 0.79 0.66 0.58 0.53 0.53 0.49 0.37 0.32 0.31 0.39 0.49 0.49 0.49 0.46 0.42 0.36
1.14 1.10 0.95 0.86 0.92 1.02 1.09 1.17 1.28 1.49 1.43 1.31 1.05 1.06 1.07 0.99 0.88 0.88 0.94 1.07 1.06 0.94 0.92 0.92 0.93 0.91 0.89 0.89 0.81 0.73 0.59 0.49 0.44 0.36 0.31 0.26 0.26 0.31 0.34 0.39 0.44 0.44 0.39
1.38 1.32 1.08 0.97 1.25 1.32 1.31 1.39 1.42 1.49 1.57 1.57 1.30 1.14 1.09 0.99 0.83 0.81 0.79 0.81 0.85 0.70 0.74 0.84 0.90 0.87 0.94 1.01 1.02 1.03 0.84 0.61 0.46 0.37 0.31 0.26 0.24 0.24 0.21 0.23 0.30 0.31 0.28
1.48 1.48 1.20 1.11 1.40 1.54 1.50 1.42 1.60 1.79 1.74 1.73 1.49 1.24 1.02 0.86 0.71 0.67 0.68 0.65 0.62 0.60 0.61 0.63 0.64 0.71 0.94 1.14 1.17 1.18 1.12 0.86 0.60 0.48 0.44 0.39 0.33 0.30 0.23 0.18 0.20 0.19 0.18
1.41 1.60 1.32 1.31 1.58 1.63 1.58 1.67 1.80 1.95 1.80 1.82 1.62 1.16 0.92 0.68 0.62 0.51 0.45 0.46 0.40 0.37 0.40 0.52 0.63 0.60 0.80 0.94 1.01 1.09 1.17 1.06 0.81 0.61 0.59 0.55 0.50 0.41 0.31 0.24 0.20 0.19 0.16
1.49 1.75 1.53 1.53 1.60 1.52 1.50 1.68 1.80 1.73 1.58 1.95 1.86 1.17 0.71 0.54 0.45 0.30 0.29 0.28 0.24 0.24 0.33 0.49 0.60 0.64 0.63 0.65 0.74 0.81 0.98 1.11 1.02 0.82 0.73 0.69 0.66 0.52 0.40 0.33 0.25 0.22 0.17
1.48 1.59 1.60 1.53 1.54 1.51 1.37 1.44 1.69 1.56 1.27 1.66 1.79 1.56 0.95 0.54 0.37 0.25 0.23 0.22 0.23 0.30 0.36 0.40 0.48 0.61 0.64 0.67 0.74 0.59 0.71 0.96 1.11 1.08 0.93 0.77 0.65 0.52 0.44 0.40 0.32 0.27 0.22
1.54 1.61 1.52 1.38 1.33 1.35 1.22 1.22 1.42 1.48 1.28 1.32 1.61 1.82 1.33 0.74 0.50 0.31 0.32 0.35 0.41 0.48 0.50 0.53 0.56 0.59 0.64 0.74 0.86 0.91 0.62 0.69 0.97 1.29 1.22 0.93 0.65 0.49 0.43 0.44 0.45 0.37 0.31
1.70 1.61 1.43 1.27 1.11 1.09 1.04 1.02 1.17 1.28 1.29 1.10 1.20 1.29 1.22 1.10 0.96 0.56 0.39 0.43 0.55 0.60 0.61 0.66 0.63 0.61 0.66 0.79 0.92 1.05 0.76 0.61 0.70 1.09 1.29 1.18 0.90 0.63 0.51 0.55 0.75 0.70 0.49
1.65 1.50 1.36 1.23 1.12 1.04 0.97 0.95 0.99 1.03 1.07 0.99 1.01 1.05 1.08 1.06 0.99 0.86 0.59 0.58 0.57 0.46 0.46 0.52 0.63 0.76 0.74 0.82 1.01 1.08 1.01 0.94 0.87 0.85 0.90 0.95 0.94 0.80 0.69 0.75 1.06 1.26 1.08
1.24 1.18 1.09 0.99 0.94 0.94 0.95 0.92 0.89 0.91 0.92 0.94 0.95 0.97 1.05 1.08 1.10 1.10 0.91 0.78 0.68 0.56 0.53 0.52 0.58 0.70 0.75 0.77 0.85 0.96 0.93 0.91 0.86 0.80 0.73 0.71 0.70 0.76 0.86 1.05 1.36 1.65 1.79
0.70 0.67 0.69 0.70 0.71 0.72 0.73 0.75 0.74 0.74 0.82 0.87 0.89 0.96 1.06 1.13 1.19 1.19 1.09 0.89 0.79 0.70 0.74 0.68 0.59 0.65 0.65 0.74 0.77 0.68 0.54 0.54 0.52 0.51 0.51 0.54 0.63 0.72 0.77 0.86 1.11 1.43 1.71
0.50 0.48 0.51 0.54 0.56 0.59 0.61 0.64 0.64 0.64 0.65 0.69 0.73 0.88 0.99 1.00 1.08 1.15 1.14 1.09 1.00 0.95 0.99 0.90 0.70 0.64 0.64 0.67 0.62 0.48 0.43 0.35 0.28 0.24 0.23 0.24 0.30 0.45 0.60 0.75 0.90 1.02 1.17
0.44 0.45 0.49 0.54 0.57 0.60 0.61 0.59 0.60 0.61 0.69 0.74 0.76 0.85 0.93 0.97 1.00 1.06 1.13 1.17 1.19 1.15 1.14 1.06 0.78 0.65 0.60 0.57 0.56 0.47 0.49 0.34 0.18 0.13 0.13 0.13 0.14 0.18 0.28 0.46 0.65 0.80 1.01
0.43 0.46 0.48 0.55 0.58 0.57 0.55 0.54 0.55 0.57 0.66 0.76 0.85 0.96 0.99 0.99 0.99 1.05 1.13 1.27 1.35 1.31 1.17 0.97 0.83 0.78 0.73 0.61 0.52 0.38 0.33 0.27 0.16 0.12 0.11 0.12 0.13 0.15 0.21 0.34 0.49 0.63 0.80
0.41 0.45 0.48 0.51 0.52 0.53 0.53 0.55 0.56 0.61 0.67 0.72 0.76 0.88 0.96 0.98 1.01 1.04 1.10 1.14 1.25 1.35 1.22 1.02 0.97 0.99 0.98 0.89 0.70 0.48 0.31 0.23 0.18 0.14 0.10 0.09 0.11 0.18 0.26 0.33 0.42 0.52 0.59
0.48 0.49 0.51 0.53 0.51 0.54 0.61 0.68 0.67 0.71 0.76 0.77 0.78 0.80 0.80 0.85 0.94 0.96 1.00 1.00 1.07 1.22 1.17 1.07 1.08 1.09 1.07 1.00 0.86 0.65 0.44 0.30 0.25 0.17 0.12 0.10 0.11 0.13 0.17 0.21 0.30 0.44 0.54
0.53 0.54 0.59 0.67 0.69 0.69 0.69 0.74 0.80 0.81 0.75 0.70 0.70 0.69 0.67 0.68 0.73 0.81 0.89 0.87 0.85 0.94 1.03 1.09 1.15 1.19 1.21 1.06 0.88 0.73 0.59 0.49 0.34 0.24 0.17 0.13 0.12 0.14 0.14 0.14 0.20 0.30 0.44
0.44 0.49 0.57 0.68 0.77 0.81 0.84 0.80 0.75 0.73 0.67 0.63 0.58 0.55 0.57 0.60 0.61 0.64 0.73 0.77 0.78 0.83 0.91 0.98 1.09 1.21 1.19 1.17 1.01 0.84 0.75 0.68 0.50 0.34 0.29 0.23 0.20 0.16 0.15 0.13 0.14 0.20 0.31
0.40 0.51 0.62 0.70 0.82 0.88 0.83 0.80 0.72 0.68 0.67 0.59 0.53 0.48 0.46 0.46 0.48 0.53 0.57 0.60 0.65 0.71 0.74 0.81 0.91 1.01 1.07 1.08 0.99 0.83 0.74 0.77 0.67 0.47 0.40 0.39 0.36 0.31 0.28 0.22 0.16 0.14 0.22
0.36 0.43 0.50 0.56 0.59 0.56 0.57 0.55 0.51 0.50 0.51 0.48 0.45 0.44 0.40 0.36 0.39 0.41 0.40 0.45 0.50 0.52 0.59 0.70 0.76 0.85 0.90 0.91 0.93 0.93 0.85 0.74 0.75 0.70 0.61 0.59 0.54 0.50 0.41 0.31 0.23 0.16 0.16
0.31 0.36 0.38 0.41 0.42 0.42 0.35 0.31 0.30 0.31 0.36 0.38 0.39 0.40 0.32 0.28 0.33 0.33 0.31 0.28 0.32 0.35 0.41 0.54 0.64 0.69 0.77 0.81 0.85 0.94 0.93 0.92 0.91 0.88 0.81 0.78 0.65 0.56 0.51 0.43 0.34 0.22 0.16
0.35 0.36 0.36 0.36 0.40 0.38 0.30 0.23 0.21 0.20 0.26 0.29 0.33 0.37 0.36 0.32 0.31 0.30 0.28 0.23 0.21 0.23 0.27 0.33 0.41 0.53 0.69 0.85 0.87 0.85 0.86 0.86 0.92 0.91 0.87 0.94 0.89 0.78 0.72 0.64 0.53 0.35 0.25
0.43 0.41 0.39 0.38 0.40 0.41 0.31 0.21 0.18 0.21 0.27 0.28 0.30 0.32 0.35 0.32 0.32 0.26 0.25 0.26 0.25 0.23 0.23 0.28 0.32 0.42 0.54 0.70 0.87 0.82 0.70 0.58 0.53 0.47 0.43 0.58 0.75 0.82 0.88 0.86 0.75 0.60 0.45
0.51 0.48 0.44 0.45 0.48 0.52 0.44 0.26 0.21 0.24 0.31 0.36 0.40 0.38 0.36 0.34 0.31 0.24 0.24 0.27 0.25 0.24 0.23 0.23 0.25 0.30 0.35 0.44 0.60 0.67 0.58 0.45 0.35 0.29 0.20 0.22 0.32 0.43 0.59 0.68 0.68 0.65 0.59